Zurück zum Katalog

FENGYUN 1C DEB

AktivPO
NORAD 31888·DEBRIS·🇨🇳 China

Gestartet May 10, 1999 von Taiyuan Satellite Launch Center

Loading…

Nächste Überflüge (nächste 24 Stunden)

TLE

AktuellSource: Space-Track

Epoche: Sep 13, 2026, 02:19 UTC

1 31888U 99025CKP 26256.09707266  .00003250  00000-0  11207-2 0  9994
2 31888  99.1623 204.2340 0018583 129.6850 230.5976 14.36545939995735

Verfolge FENGYUN 1C DEB in Echtzeit mit AllMySat

Download on the App Store